{"data":{"norad_id":46051,"epoch":"2026-09-20T01:34:12.464256Z","epoch_age_seconds":55859,"freshness":"FRESH","line1":"1 46051U 20055AA  26263.06542204  .00000057  00000+0  13622-4 0  9999","line2":"2 46051  53.1594 289.6161 0001605  95.8587 264.2598 15.31695274338869","mean_motion":15.31695274,"eccentricity":0.0001605,"inclination_deg":53.1594,"raan_deg":289.6161,"arg_perigee_deg":95.8587,"mean_anomaly_deg":264.2598,"bstar":1.3622e-5,"rev_number":33886,"period_min":94.013478035971,"perigee_km":469.65483620309,"apogee_km":471.85333024081,"semimajor_km":6848.8910832219,"source":"CELESTRAK","updated_at":"2026-09-20T09:00:38.461940Z"}}